SAS82C EKCH-LGSA

Flight info

Callsign SAS82C
Flight time N/A
Altitude 39000
Route SALLO M44 KOGIM M725 MASOR DCT LUROS M725 HDO DCT LANUX DCT SASAL DCT VEBAL DCT NILKU DCT POD DCT RETRA DCT ADDER DCT DIMIS DCT IPTES UL604 TRL UL612 MANOK L612 RUSOS
Aircraft A20N/M-SDE3FGIJ1RWXY/ALB1

Departure

Time 2026-04-23 15:31
Airport Copenhagen Kastrup Airport (EKCH)

Arrival

Time N/A
Airport Chania International Airport (LGSA)
Time Latitude Longitude Altitude Speed Heading
2026-04-23 15:19 55.62701 12.65074 23 ft 0 kts 291°
2026-04-23 15:23 55.62700 12.65079 23 ft 3 kts 291°
2026-04-23 15:23 55.62689 12.65122 26 ft 4 kts 298°
2026-04-23 15:23 55.62675 12.65162 28 ft 4 kts 314°
2026-04-23 15:23 55.62655 12.65186 28 ft 3 kts 357°
2026-04-23 15:24 55.62652 12.65187 28 ft 0 kts 359°
2026-04-23 15:25 55.62653 12.65188 28 ft 0 kts
2026-04-23 15:26 55.62655 12.65219 28 ft 7 kts 82°
2026-04-23 15:26 55.62617 12.65318 27 ft 15 kts 171°
2026-04-23 15:26 55.62509 12.65323 25 ft 15 kts 176°
2026-04-23 15:26 55.62406 12.65328 23 ft 14 kts 180°
2026-04-23 15:27 55.62311 12.65317 25 ft 13 kts 208°
2026-04-23 15:27 55.62286 12.65178 27 ft 12 kts 252°
2026-04-23 15:27 55.62290 12.65043 28 ft 11 kts 300°
2026-04-23 15:27 55.62316 12.64913 23 ft 12 kts 243°
2026-04-23 15:28 55.62244 12.64815 24 ft 15 kts 214°
2026-04-23 15:28 55.62153 12.64702 26 ft 17 kts 215°
2026-04-23 15:28 55.62053 12.64586 25 ft 18 kts 213°
2026-04-23 15:28 55.61965 12.64461 23 ft 17 kts 243°
2026-04-23 15:29 55.61940 12.64256 25 ft 18 kts 259°
2026-04-23 15:29 55.61882 12.64079 24 ft 18 kts 202°
2026-04-23 15:29 55.61784 12.64078 25 ft 10 kts 176°
2026-04-23 15:29 55.61705 12.64087 27 ft 13 kts 176°
2026-04-23 15:30 55.61621 12.64064 27 ft 13 kts 215°
2026-04-23 15:30 55.61511 12.63893 29 ft 44 kts 222°
2026-04-23 15:30 55.61103 12.63267 26 ft 108 kts 221°
2026-04-23 15:30 55.60409 12.62189 27 ft 155 kts 220°
2026-04-23 15:31 55.59534 12.60902 416 ft 162 kts 226°
2026-04-23 15:31 55.58683 12.59616 1039 ft 163 kts 228°
2026-04-23 15:31 55.57811 12.58247 1544 ft 168 kts 228°
2026-04-23 15:31 55.56923 12.56846 2018 ft 180 kts 229°
2026-04-23 15:32 55.55831 12.55487 2350 ft 208 kts 208°
2026-04-23 15:32 55.54390 12.54600 2743 ft 232 kts 203°
2026-04-23 15:32 55.52790 12.53639 3259 ft 254 kts 203°
2026-04-23 15:32 55.51045 12.52598 3896 ft 273 kts 202°
2026-04-23 15:33 55.49224 12.51524 4838 ft 278 kts 201°
2026-04-23 15:33 55.47371 12.50437 5804 ft 284 kts 201°
2026-04-23 15:33 55.45419 12.49701 6756 ft 293 kts 182°
2026-04-23 15:33 55.43403 12.50420 7591 ft 303 kts 155°
2026-04-23 15:34 55.41690 12.52593 8417 ft 307 kts 128°
2026-04-23 15:34 55.40636 12.55814 9299 ft 304 kts 102°
2026-04-23 15:34 55.40187 12.59451 10202 ft 305 kts 93°
2026-04-23 15:34 55.39851 12.63225 10752 ft 323 kts 94°
2026-04-23 15:35 55.39400 12.67254 11081 ft 348 kts 98°
2026-04-23 15:35 55.38794 12.71471 11663 ft 361 kts 101°
2026-04-23 15:35 55.38094 12.75740 12514 ft 365 kts 102°
2026-04-23 15:35 55.37356 12.80027 13367 ft 369 kts 102°
2026-04-23 15:36 55.36600 12.84361 14174 ft 373 kts 103°
2026-04-23 15:36 55.36094 12.87262 14634 ft 377 kts 103°
2026-04-23 15:36 55.35320 12.91693 15350 ft 381 kts 103°
2026-04-23 15:36 55.34537 12.96168 16044 ft 386 kts 104°
2026-04-23 15:37 55.33352 13.00455 16728 ft 397 kts 122°
2026-04-23 15:37 55.31441 13.04017 17397 ft 407 kts 141°
2026-04-23 15:37 55.29014 13.06627 18066 ft 413 kts 152°
2026-04-23 15:37 55.26402 13.08785 18698 ft 417 kts 155°
2026-04-23 15:38 55.23743 13.10885 19285 ft 421 kts 155°
2026-04-23 15:38 55.21073 13.13060 19871 ft 425 kts 154°
2026-04-23 15:38 55.18398 13.15321 20459 ft 429 kts 153°
2026-04-23 15:38 55.15706 13.17650 21043 ft 433 kts 153°
2026-04-23 15:39 55.12999 13.20016 21629 ft 437 kts 153°
2026-04-23 15:39 55.10268 13.22410 22182 ft 441 kts 153°
2026-04-23 15:39 55.07513 13.24822 22772 ft 445 kts 153°
2026-04-23 15:39 55.04719 13.27262 23223 ft 452 kts 152°
2026-04-23 15:40 55.01903 13.29717 23809 ft 455 kts 153°
2026-04-23 15:40 54.99062 13.32190 24281 ft 458 kts 152°
2026-04-23 15:40 54.96208 13.34669 24789 ft 460 kts 152°
2026-04-23 15:40 54.93307 13.37053 25272 ft 463 kts 157°
2026-04-23 15:41 54.90242 13.38837 25729 ft 466 kts 166°
2026-04-23 15:41 54.87100 13.39906 26186 ft 468 kts 172°
2026-04-23 15:41 54.83871 13.40745 26617 ft 471 kts 172°
2026-04-23 15:41 54.80624 13.41597 27057 ft 473 kts 172°
2026-04-23 15:42 54.77360 13.42462 27469 ft 476 kts 171°
2026-04-23 15:42 54.74087 13.43334 27966 ft 477 kts 171°
2026-04-23 15:42 54.70800 13.44213 28353 ft 480 kts 171°
2026-04-23 15:42 54.67487 13.45099 28736 ft 482 kts 171°
2026-04-23 15:43 54.64167 13.45988 29115 ft 485 kts 171°
2026-04-23 15:43 54.60820 13.46882 29478 ft 487 kts 171°
2026-04-23 15:43 54.57461 13.47778 29828 ft 490 kts 171°
2026-04-23 15:43 54.54086 13.48676 30184 ft 492 kts 171°
2026-04-23 15:44 54.50693 13.49577 30492 ft 494 kts 171°
2026-04-23 15:44 54.47298 13.50460 30933 ft 494 kts 171°
2026-04-23 15:44 54.43873 13.51325 31052 ft 501 kts 171°
2026-04-23 15:44 54.40416 13.52191 31362 ft 503 kts 171°
2026-04-23 15:45 54.36958 13.53057 31797 ft 501 kts 171°
2026-04-23 15:45 54.33510 13.53921 32204 ft 500 kts 171°
2026-04-23 15:45 54.30068 13.54788 32612 ft 500 kts 171°
2026-04-23 15:45 54.26629 13.55684 33011 ft 499 kts 171°
2026-04-23 15:46 54.23202 13.56589 33405 ft 497 kts 171°
2026-04-23 15:46 54.19798 13.57487 33909 ft 494 kts 171°
2026-04-23 15:46 54.16404 13.58378 34261 ft 493 kts 171°
2026-04-23 15:46 54.13016 13.59260 34574 ft 492 kts 171°
2026-04-23 15:47 54.09635 13.60136 34895 ft 491 kts 171°
2026-04-23 15:47 54.06257 13.61009 35197 ft 490 kts 171°
2026-04-23 15:47 54.02891 13.61877 35488 ft 489 kts 171°
2026-04-23 15:47 53.99522 13.62745 35769 ft 489 kts 171°
2026-04-23 15:48 53.96163 13.63609 36080 ft 487 kts 171°
2026-04-23 15:48 53.92820 13.64467 36389 ft 485 kts 171°
2026-04-23 15:48 53.89488 13.65341 36642 ft 485 kts 170°
2026-04-23 15:48 53.86160 13.66251 36886 ft 484 kts 170°
2026-04-23 15:49 53.82875 13.67158 37133 ft 484 kts 170°
2026-04-23 15:49 53.79511 13.68085 37368 ft 483 kts 170°
2026-04-23 15:49 53.76194 13.68993 37596 ft 484 kts 170°
2026-04-23 15:50 53.69515 13.70808 37891 ft 486 kts 169°
2026-04-23 15:50 53.66188 13.71707 38171 ft 484 kts 169°
2026-04-23 15:50 53.62868 13.72604 38376 ft 483 kts 169°
2026-04-23 15:50 53.59548 13.73500 38563 ft 483 kts 169°
2026-04-23 15:51 53.56232 13.74393 38748 ft 483 kts 169°
2026-04-23 15:51 53.52957 13.75273 38916 ft 482 kts 169°
2026-04-23 15:51 53.49648 13.76161 39055 ft 482 kts 169°
2026-04-23 15:52 53.42992 13.77943 39165 ft 480 kts 169°
2026-04-23 15:52 53.36463 13.79685 39169 ft 478 kts 169°
2026-04-23 15:53 53.29886 13.81436 39174 ft 479 kts 169°
2026-04-23 15:53 53.23308 13.83180 39177 ft 479 kts 169°
2026-04-23 15:54 53.16725 13.84920 39162 ft 477 kts 169°
2026-04-23 15:54 53.10184 13.86644 39166 ft 476 kts 169°
2026-04-23 15:55 53.03602 13.88375 39171 ft 482 kts 169°
2026-04-23 15:55 52.96987 13.90108 39172 ft 481 kts 169°
2026-04-23 15:56 52.90382 13.91831 39173 ft 479 kts 169°
2026-04-23 15:56 52.83805 13.93543 39171 ft 478 kts 169°
2026-04-23 15:57 52.77226 13.95252 39177 ft 479 kts 169°
2026-04-23 15:57 52.70647 13.96954 39168 ft 479 kts 169°
2026-04-23 15:58 52.64062 13.98652 39168 ft 479 kts 169°
2026-04-23 15:58 52.57526 14.00333 39171 ft 479 kts 169°
2026-04-23 15:59 52.50939 14.02022 39175 ft 479 kts 169°
2026-04-23 15:59 52.44358 14.03705 39176 ft 479 kts 169°
2026-04-23 16:00 52.37767 14.05383 39162 ft 480 kts 169°
2026-04-23 16:00 52.31164 14.07062 39169 ft 480 kts 169°
2026-04-23 16:01 52.24564 14.08734 39169 ft 480 kts 169°
2026-04-23 16:01 52.17960 14.10402 39174 ft 480 kts 169°
2026-04-23 16:02 52.11348 14.12065 39179 ft 480 kts 168°
2026-04-23 16:02 52.04745 14.13723 39185 ft 480 kts 168°
2026-04-23 16:03 51.98142 14.15376 39186 ft 480 kts 168°
2026-04-23 16:03 51.91538 14.17025 39184 ft 480 kts 168°
2026-04-23 16:04 51.84954 14.18527 39169 ft 476 kts 170°
2026-04-23 16:04 51.78364 14.19809 39174 ft 478 kts 170°
2026-04-23 16:05 51.72885 14.20897 39174 ft 477 kts 170°
2026-04-23 16:05 51.65178 14.22453 39176 ft 477 kts 170°
2026-04-23 16:06 51.58649 14.23771 39163 ft 475 kts 170°
2026-04-23 16:06 51.52093 14.25092 39159 ft 475 kts 170°
2026-04-23 16:07 51.45536 14.26410 39163 ft 474 kts 170°
2026-04-23 16:07 51.38991 14.27723 39167 ft 473 kts 169°
2026-04-23 16:08 51.32457 14.29031 39164 ft 473 kts 169°
2026-04-23 16:08 51.25930 14.30333 39165 ft 473 kts 169°
2026-04-23 16:09 51.19399 14.31632 39167 ft 473 kts 169°
2026-04-23 16:09 51.12872 14.32926 39172 ft 473 kts 169°
2026-04-23 16:10 51.06339 14.34217 39164 ft 474 kts 169°
2026-04-23 16:10 50.99751 14.35516 39173 ft 478 kts 169°
2026-04-23 16:11 50.93210 14.37191 39173 ft 473 kts 161°
2026-04-23 16:11 50.87023 14.40490 39175 ft 467 kts 153°
2026-04-23 16:12 50.81005 14.44387 39165 ft 467 kts 153°
2026-04-23 16:12 50.75012 14.48218 39163 ft 467 kts 153°
2026-04-23 16:13 50.68981 14.52041 39159 ft 467 kts 153°
2026-04-23 16:13 50.59934 14.57754 39179 ft 467 kts 153°
2026-04-23 16:14 50.53901 14.61552 39154 ft 467 kts 153°
2026-04-23 16:14 50.47862 14.65343 39144 ft 467 kts 153°
2026-04-23 16:15 50.41823 14.69122 39146 ft 467 kts 153°
2026-04-23 16:15 50.35788 14.72888 39154 ft 467 kts 153°
2026-04-23 16:16 50.29758 14.76643 39152 ft 466 kts 153°
2026-04-23 16:16 50.23729 14.80386 39148 ft 466 kts 153°
2026-04-23 16:17 50.17704 14.84116 39147 ft 466 kts 153°
2026-04-23 16:17 50.11666 14.87845 39138 ft 467 kts 153°
2026-04-23 16:18 50.05626 14.91564 39133 ft 467 kts 153°
2026-04-23 16:18 49.99578 14.95278 39132 ft 468 kts 153°
2026-04-23 16:19 49.93522 14.98988 39131 ft 468 kts 153°
2026-04-23 16:19 49.87453 15.02693 39145 ft 469 kts 153°
2026-04-23 16:20 49.81377 15.06394 39138 ft 469 kts 153°
2026-04-23 16:20 49.75298 15.10088 39140 ft 470 kts 153°
2026-04-23 16:21 49.69207 15.13778 39140 ft 470 kts 153°
2026-04-23 16:21 49.63109 15.17463 39146 ft 471 kts 153°
2026-04-23 16:22 49.57009 15.21138 39150 ft 471 kts 153°
2026-04-23 16:22 49.50908 15.24805 39140 ft 471 kts 153°
2026-04-23 16:23 49.44802 15.28464 39145 ft 471 kts 153°
2026-04-23 16:23 49.38746 15.32085 39138 ft 470 kts 153°
2026-04-23 16:24 49.32685 15.35700 39134 ft 467 kts 153°
2026-04-23 16:24 49.26614 15.39311 39135 ft 468 kts 154°
2026-04-23 16:25 49.20549 15.42908 39130 ft 467 kts 154°
2026-04-23 16:25 49.14482 15.46496 39132 ft 467 kts 154°
2026-04-23 16:26 49.09448 15.49466 39127 ft 466 kts 154°
2026-04-23 16:26 49.03415 15.53017 39116 ft 464 kts 154°
2026-04-23 16:27 48.97397 15.56550 39130 ft 463 kts 154°
2026-04-23 16:27 48.91336 15.60105 39130 ft 469 kts 154°
2026-04-23 16:28 48.85243 15.63610 39126 ft 468 kts 155°
2026-04-23 16:28 48.79113 15.66960 39128 ft 469 kts 155°
2026-04-23 16:29 48.72977 15.70317 39115 ft 468 kts 155°
2026-04-23 16:29 48.66853 15.73677 39116 ft 468 kts 155°
2026-04-23 16:30 48.60721 15.77036 39112 ft 469 kts 155°
2026-04-23 16:30 48.54587 15.80389 39108 ft 469 kts 156°
2026-04-23 16:31 48.48444 15.83736 39102 ft 469 kts 156°
2026-04-23 16:31 48.42309 15.87070 39103 ft 469 kts 156°
2026-04-23 16:32 48.36175 15.90399 39106 ft 468 kts 156°
2026-04-23 16:32 48.30051 15.93710 39112 ft 468 kts 156°
2026-04-23 16:33 48.23931 15.97011 39101 ft 467 kts 156°
2026-04-23 16:33 48.17849 16.00283 39119 ft 467 kts 156°
2026-04-23 16:34 48.11717 16.03574 39100 ft 464 kts 156°
2026-04-23 16:34 48.05664 16.06815 39098 ft 465 kts 156°
2026-04-23 16:35 47.99575 16.10066 39097 ft 465 kts 156°
2026-04-23 16:35 47.93488 16.13308 39094 ft 465 kts 156°
2026-04-23 16:36 47.87392 16.16545 39084 ft 465 kts 156°
2026-04-23 16:36 47.81291 16.19780 39098 ft 466 kts 156°
2026-04-23 16:37 47.75183 16.23010 39082 ft 466 kts 157°
2026-04-23 16:37 47.69065 16.26236 39081 ft 466 kts 157°
2026-04-23 16:38 47.62947 16.29454 39085 ft 467 kts 157°
2026-04-23 16:38 47.56827 16.32665 39082 ft 467 kts 157°
2026-04-23 16:39 47.50704 16.35869 39084 ft 467 kts 157°
2026-04-23 16:39 47.44575 16.39070 39081 ft 469 kts 157°
2026-04-23 16:40 47.38405 16.42283 39079 ft 470 kts 157°
2026-04-23 16:40 47.32243 16.45483 39080 ft 469 kts 157°
2026-04-23 16:41 47.26156 16.48906 39084 ft 468 kts 152°
2026-04-23 16:41 47.20228 16.52789 39083 ft 462 kts 153°
2026-04-23 16:42 47.14360 16.56618 39086 ft 463 kts 153°
2026-04-23 16:42 47.08468 16.60441 39086 ft 463 kts 153°
2026-04-23 16:43 47.02575 16.64251 39091 ft 463 kts 153°
2026-04-23 16:43 46.96697 16.68042 39088 ft 460 kts 153°
2026-04-23 16:44 46.90856 16.71799 39073 ft 458 kts 153°
2026-04-23 16:44 46.85034 16.75537 39086 ft 459 kts 153°
2026-04-23 16:45 46.79198 16.79275 39088 ft 461 kts 153°
2026-04-23 16:45 46.73322 16.83030 39084 ft 463 kts 153°
2026-04-23 16:46 46.67414 16.86795 39089 ft 461 kts 154°
2026-04-23 16:46 46.61553 16.90519 39079 ft 460 kts 154°
2026-04-23 16:47 46.55682 16.94244 39078 ft 460 kts 154°
2026-04-23 16:47 46.49795 16.97970 39082 ft 463 kts 154°
2026-04-23 16:48 46.43881 17.01703 39083 ft 463 kts 154°
2026-04-23 16:48 46.37976 17.05421 39084 ft 463 kts 154°
2026-04-23 16:49 46.32075 17.09129 39090 ft 462 kts 154°
2026-04-23 16:49 46.26175 17.12828 39074 ft 462 kts 154°
2026-04-23 16:50 46.20275 17.16518 39069 ft 462 kts 154°
2026-04-23 16:50 46.14380 17.20196 39069 ft 462 kts 154°
2026-04-23 16:51 46.08479 17.23869 39066 ft 462 kts 154°
2026-04-23 16:51 46.02583 17.27532 39071 ft 462 kts 154°
2026-04-23 16:52 45.96665 17.31147 39081 ft 462 kts 156°
2026-04-23 16:52 45.90651 17.34446 39079 ft 463 kts 157°
2026-04-23 16:53 45.84632 17.37733 39083 ft 463 kts 156°
2026-04-23 16:53 45.78663 17.41030 39086 ft 463 kts 157°
2026-04-23 16:54 45.72648 17.44352 39089 ft 463 kts 157°
2026-04-23 16:54 45.66632 17.47667 39100 ft 464 kts 156°
2026-04-23 16:55 45.60604 17.50980 39092 ft 464 kts 156°
2026-04-23 16:55 45.54569 17.54290 39085 ft 465 kts 156°
2026-04-23 16:56 45.48530 17.57595 39079 ft 465 kts 156°
2026-04-23 16:56 45.42486 17.60894 39082 ft 465 kts 156°
2026-04-23 16:57 45.36442 17.64186 39080 ft 465 kts 157°
2026-04-23 16:57 45.30391 17.67474 39089 ft 466 kts 157°
2026-04-23 16:58 45.24329 17.70760 39087 ft 466 kts 157°
2026-04-23 16:58 45.18268 17.74039 39086 ft 466 kts 157°
2026-04-23 16:59 45.12206 17.77309 39079 ft 466 kts 156°
2026-04-23 16:59 45.06139 17.80576 39082 ft 467 kts 156°
2026-04-23 17:00 45.00106 17.83817 39087 ft 467 kts 156°
2026-04-23 17:00 44.93997 17.87091 39082 ft 466 kts 156°
2026-04-23 17:01 44.87961 17.90319 39079 ft 467 kts 156°
2026-04-23 17:01 44.81885 17.93561 39081 ft 467 kts 156°
2026-04-23 17:02 44.75810 17.96795 39083 ft 467 kts 156°
2026-04-23 17:02 44.69733 18.00021 39081 ft 467 kts 156°
2026-04-23 17:03 44.63655 18.03242 39097 ft 466 kts 156°
2026-04-23 17:03 44.57581 18.06454 39078 ft 467 kts 156°
2026-04-23 17:04 44.51506 18.09659 39084 ft 466 kts 156°
2026-04-23 17:04 44.45427 18.12859 39082 ft 466 kts 156°
2026-04-23 17:05 44.39353 18.16049 39082 ft 466 kts 156°
2026-04-23 17:05 44.33277 18.19235 39082 ft 467 kts 156°
2026-04-23 17:06 44.27191 18.22415 39088 ft 467 kts 156°
2026-04-23 17:06 44.21108 18.25589 39075 ft 467 kts 156°
2026-04-23 17:07 44.15022 18.28758 39077 ft 467 kts 156°
2026-04-23 17:07 44.08939 18.31919 39077 ft 467 kts 156°
2026-04-23 17:08 44.02854 18.35072 39075 ft 467 kts 156°
2026-04-23 17:08 43.96770 18.38219 39080 ft 467 kts 156°
2026-04-23 17:09 43.90682 18.41361 39068 ft 466 kts 156°
2026-04-23 17:09 43.84608 18.44488 39068 ft 465 kts 156°
2026-04-23 17:10 43.78534 18.47609 39072 ft 465 kts 156°
2026-04-23 17:10 43.72461 18.50723 39067 ft 466 kts 156°
2026-04-23 17:11 43.66386 18.53832 39083 ft 465 kts 156°
2026-04-23 17:11 43.60344 18.56916 39077 ft 467 kts 155°
2026-04-23 17:12 43.54253 18.60019 39076 ft 467 kts 155°
2026-04-23 17:12 43.48154 18.63119 39075 ft 467 kts 155°
2026-04-23 17:13 43.42053 18.66214 39079 ft 468 kts 155°
2026-04-23 17:13 43.35937 18.69313 39086 ft 469 kts 155°
2026-04-23 17:14 43.30896 18.72032 39087 ft 467 kts 152°
2026-04-23 17:14 43.24976 18.75593 39075 ft 464 kts 152°
2026-04-23 17:15 43.19042 18.79116 39075 ft 466 kts 152°
2026-04-23 17:15 43.13079 18.82605 39072 ft 467 kts 152°
2026-04-23 17:16 43.07108 18.86082 39073 ft 466 kts 152°
2026-04-23 17:16 43.01136 18.89550 39067 ft 466 kts 152°
2026-04-23 17:17 42.95166 18.93013 39066 ft 466 kts 152°
2026-04-23 17:17 42.89205 18.96463 39057 ft 465 kts 152°
2026-04-23 17:18 42.80290 19.01609 39053 ft 464 kts 152°
2026-04-23 17:19 42.74349 19.05030 39039 ft 463 kts 152°
2026-04-23 17:19 42.68415 19.08439 39032 ft 463 kts 152°
2026-04-23 17:20 42.62485 19.11839 39033 ft 463 kts 152°
2026-04-23 17:21 42.50631 19.18615 39009 ft 462 kts 152°
2026-04-23 17:21 42.41756 19.23670 39022 ft 461 kts 152°
2026-04-23 17:22 42.32810 19.28507 39015 ft 463 kts 155°
2026-04-23 17:23 42.23756 19.33032 39015 ft 462 kts 155°
2026-04-23 17:24 42.14899 19.38042 39023 ft 459 kts 151°
2026-04-23 17:24 42.06125 19.43246 39021 ft 459 kts 152°
2026-04-23 17:25 41.97328 19.48366 39017 ft 459 kts 152°
2026-04-23 17:26 41.85647 19.55134 39013 ft 458 kts 153°
2026-04-23 17:27 41.76870 19.60200 39006 ft 457 kts 153°
2026-04-23 17:27 41.71024 19.63567 39006 ft 457 kts 153°
2026-04-23 17:28 41.65185 19.66927 38996 ft 457 kts 153°
2026-04-23 17:28 41.59349 19.70274 38997 ft 456 kts 153°
2026-04-23 17:29 41.53510 19.73615 38994 ft 456 kts 154°
2026-04-23 17:30 41.44740 19.78628 39019 ft 460 kts 154°
2026-04-23 17:30 41.35910 19.83652 39017 ft 460 kts 154°
2026-04-23 17:31 41.30028 19.86991 39018 ft 460 kts 154°
2026-04-23 17:31 41.24137 19.90331 39010 ft 462 kts 155°
2026-04-23 17:32 41.18208 19.93685 39000 ft 463 kts 155°
2026-04-23 17:32 41.12292 19.97024 38996 ft 461 kts 155°
2026-04-23 17:33 41.06383 20.00353 38992 ft 462 kts 155°
2026-04-23 17:33 41.00473 20.03676 38992 ft 462 kts 155°
2026-04-23 17:34 40.94554 20.06998 38993 ft 462 kts 155°
2026-04-23 17:35 40.85674 20.11969 38997 ft 462 kts 155°
2026-04-23 17:35 40.76820 20.16912 38996 ft 463 kts 155°
2026-04-23 17:36 40.70889 20.20213 38997 ft 463 kts 155°
2026-04-23 17:36 40.64957 20.23510 39003 ft 463 kts 155°
2026-04-23 17:37 40.59018 20.26805 39002 ft 463 kts 155°
2026-04-23 17:38 40.50134 20.31784 38997 ft 462 kts 154°
2026-04-23 17:38 40.44383 20.35549 38990 ft 461 kts 152°
2026-04-23 17:39 40.38652 20.39328 38991 ft 461 kts 153°
2026-04-23 17:39 40.32903 20.43049 38978 ft 461 kts 153°
2026-04-23 17:40 40.27141 20.46751 38978 ft 461 kts 153°
2026-04-23 17:40 40.21582 20.50314 38971 ft 462 kts 154°
2026-04-23 17:41 40.15811 20.54007 38974 ft 462 kts 154°
2026-04-23 17:41 40.07143 20.59544 38968 ft 463 kts 154°
2026-04-23 17:42 39.98537 20.65286 38979 ft 463 kts 153°
2026-04-23 17:43 39.92808 20.69144 38970 ft 464 kts 153°
2026-04-23 17:43 39.87059 20.72988 38965 ft 464 kts 153°
2026-04-23 17:44 39.81308 20.76821 38968 ft 465 kts 153°
2026-04-23 17:44 39.72664 20.82567 38961 ft 466 kts 154°
2026-04-23 17:45 39.63996 20.88312 38970 ft 466 kts 154°
2026-04-23 17:46 39.55323 20.94046 38977 ft 467 kts 154°
2026-04-23 17:46 39.49570 20.97839 38983 ft 467 kts 154°
2026-04-23 17:47 39.43770 21.01658 38988 ft 467 kts 154°
2026-04-23 17:48 39.35078 21.07366 38989 ft 469 kts 154°
2026-04-23 17:48 39.29271 21.11170 38984 ft 468 kts 154°
2026-04-23 17:49 39.23459 21.14971 38989 ft 468 kts 155°
2026-04-23 17:49 39.17651 21.18762 38987 ft 468 kts 155°
2026-04-23 17:50 39.11845 21.22545 38980 ft 468 kts 155°
2026-04-23 17:50 39.03130 21.28209 38990 ft 468 kts 155°
2026-04-23 17:51 38.97320 21.31977 38986 ft 468 kts 155°
2026-04-23 17:52 38.88607 21.37615 38971 ft 468 kts 156°
2026-04-23 17:52 38.79920 21.43220 38989 ft 468 kts 156°
2026-04-23 17:53 38.71186 21.48841 38993 ft 469 kts 156°
2026-04-23 17:54 38.65383 21.52661 38993 ft 470 kts 155°
2026-04-23 17:54 38.56683 21.58455 39002 ft 470 kts 155°
2026-04-23 17:55 38.47970 21.64215 38996 ft 471 kts 155°
2026-04-23 17:56 38.42148 21.68052 39002 ft 471 kts 155°
2026-04-23 17:56 38.33408 21.73799 39004 ft 471 kts 155°
2026-04-23 17:57 38.27582 21.77622 38992 ft 471 kts 155°
2026-04-23 17:58 38.18874 21.83324 38989 ft 467 kts 156°
2026-04-23 17:58 38.13087 21.87104 38993 ft 468 kts 156°
2026-04-23 17:59 38.07305 21.90874 38996 ft 467 kts 156°
2026-04-23 17:59 38.01516 21.94640 38996 ft 467 kts 156°
2026-04-23 18:00 37.95730 21.98400 39007 ft 467 kts 156°
2026-04-23 18:00 37.89932 22.02161 38985 ft 468 kts 156°
2026-04-23 18:01 37.85119 22.05279 39002 ft 468 kts 157°
2026-04-23 18:01 37.79319 22.09026 39010 ft 468 kts 156°
2026-04-23 18:02 37.73523 22.12766 39006 ft 468 kts 157°
2026-04-23 18:02 37.67725 22.16502 39004 ft 467 kts 157°
2026-04-23 18:03 37.61928 22.20229 39010 ft 469 kts 157°
2026-04-23 18:03 37.56109 22.23964 39018 ft 470 kts 157°
2026-04-23 18:04 37.50294 22.27691 39006 ft 468 kts 157°
2026-04-23 18:04 37.44525 22.31497 39007 ft 471 kts 152°
2026-04-23 18:05 37.39367 22.36567 38993 ft 479 kts 138°
2026-04-23 18:05 37.35138 22.43112 39012 ft 486 kts 128°
2026-04-23 18:06 37.31208 22.50009 39016 ft 485 kts 129°